Location: Cran-Gévrier
(45.9039°N, 6.1012°E)
Time: 22:13:40
(UTC+00:00)

Cosmos 2219 Rocket - Visible Passes

Search period start: 27 May 2024 00:00
Search period end: 06 June 2024 00:00
Orbit: 827 x 846 km, 71.0° (Epoch: 26 May)

Date Brightness Start Highest point End Pass type
(mag) Time Alt. Az. Time Alt. Az. Time Alt. Az.
27 May 3.9 00:45:30 10° N 00:50:33 32° NE 00:55:36 10° ESE visible
27 May 2.5 02:29:16 10° NW 02:34:39 46° WSW 02:40:01 10° S visible
28 May 3.9 00:28:56 10° N 00:33:54 30° NE 00:38:52 10° ESE visible
28 May 2.4 02:12:38 10° NW 02:18:05 49° WSW 02:23:30 10° S visible
29 May 4.0 00:12:22 10° N 00:17:15 29° NE 00:22:07 10° ESE visible
29 May 2.3 01:56:00 10° NW 02:01:30 53° WSW 02:06:49 11° S visible
29 May 4.1 23:55:50 10° N 00:00:37 27° NE 00:05:21 10° ESE visible
30 May 2.3 01:39:21 10° NNW 01:44:55 58° WSW 01:49:19 16° S visible
30 May 4.1 23:39:17 10° N 23:43:56 25° NE 23:48:36 10° ESE visible
31 May 2.2 01:22:44 10° NNW 01:28:19 62° WSW 01:32:03 21° S visible
31 May 4.2 23:22:45 10° N 23:27:17 24° NE 23:31:49 10° E visible
01 Jun 2.2 01:06:06 10° NNW 01:11:44 67° WSW 01:14:58 26° S visible
01 Jun 4.2 23:06:12 10° N 23:10:37 23° NE 23:15:01 10° E visible
02 Jun 2.1 00:49:29 10° NNW 00:55:09 73° WSW 00:58:00 30° S visible
02 Jun 4.1 02:37:03 10° W 02:38:02 10° W 02:39:00 10° WSW visible
02 Jun 4.3 22:49:40 10° N 22:53:57 21° NE 22:58:13 10° E visible
03 Jun 2.1 00:32:52 10° NNW 00:38:33 78° WSW 00:41:09 34° SSE visible
03 Jun 4.1 02:19:40 10° WNW 02:21:30 12° W 02:22:49 11° WSW visible
03 Jun 4.3 22:33:09 10° N 22:37:17 20° NE 22:41:24 10° E visible
04 Jun 2.1 00:16:15 10° NNW 00:21:57 84° WSW 00:24:23 36° SSE visible
04 Jun 4.0 02:02:36 10° WNW 02:04:58 13° W 02:06:03 12° WSW visible
04 Jun 4.3 22:16:37 10° N 22:20:37 19° NE 22:24:35 10° E visible
04 Jun 2.1 23:59:39 10° NNW 00:05:21 90° SW 00:07:41 38° SSE visible
05 Jun 4.0 01:45:38 10° WNW 01:48:26 14° W 01:49:20 13° WSW visible
05 Jun 4.4 22:00:07 10° N 22:03:55 18° NE 22:07:44 10° E visible
05 Jun 2.2 23:43:02 10° NNW 23:48:45 85° ENE 23:51:02 38° SSE visible
